Regional Weather Roundup
Issued by NWS

Home | Current Version | Previous Version | Graphics & Text | Print | Product List | Glossary On
Versions: 1 2 3 4 5 6 7 8 9 10 11 12 13 14 15 16 17 18 19 20 21 22 23 24 25 26 27 28 29 30 31 32 33 34 35 36 37 38 39 40 41 42 43 44 45 46 47 48 49 50
000
ASUS45 KTFX 010419
RWRMT
MONTANA HOURLY WEATHER ROUNDUP
NATIONAL WEATHER SERVICE GREAT FALLS MT
919 PM MST SAT FEB 28 2015

NOTE: "FAIR" INDICATES FEW OR NO CLOUDS BELOW 12000 FEET WITH NO
SIGNIFICANT WEATHER AND/OR OBSTRUCTIONS TO VISIBILITY.

* THESE STATIONS ARE NOT UNDER NWS QUALITY CONTROL. THEY DO NOT
   REPORT WEATHER SUCH AS PRECIPITATION OR FOG.

MTZ001>007-043-010500-
WEST OF THE DIVIDE
CITY           SKY/WX    TMP DP  RH WIND       PRES   REMARKS
KALISPELL      CLEAR     18  10  71 CALM      30.17R
MISSOULA       CLEAR     23  10  57 W5        30.18R WCI  16
BUTTE          CLEAR     14   7  73 S5        30.09R WCI   6
MULLAN PASS    CLEAR     16  -2  45 SE8       30.03R WCI   5
* ANACONDA     CLEAR     10   3  73 N/A        N/A
* ESSEX        N/A       17   5  59 S4         N/A
* EUREKA APT   CLEAR     21   7  55 CALM      30.19R
* HAMILTON APT CLEAR     27   9  46 NE2       30.14R
* LIBBY APT    CLEAR     27   5  39 SE7       30.20R WCI  19
* LINCOLN      N/A       14   0  53 E4G10      N/A
* LOOKOUT PASS N/A       22   1  40 S2         N/A
* POLSON       N/A       22  -3  33 N/A        N/A
* RONAN APT    CLEAR     25  12  58 N/A        N/A
* SEELEY LAKE  N/A       11   1  64 N/A        N/A
* THOMP F APT  CLEAR     16   3  56 N8G17      N/A   WCI   5
$$

MTZ008-052>055-010500-
SOUTHWEST MONTANA
CITY           SKY/WX    TMP DP  RH WIND       PRES   REMARKS
BOZEMAN        MOCLDY    18   9  68 NW9       30.14R WCI   7
DILLON         CLEAR     14   3  61 NE9       30.07R WCI   2
* W YELLOWSTON PTCLDY    13   2  61 NW3        N/A
* THREE FORKS  CLEAR     18   1  47 N/A        N/A
* BOULDER HILL N/A        5  -7  57 N/A        N/A
* MONIDA PASS  N/A       13   5  70 NW10       N/A
* RAYNOLDS PAS N/A        7   6  96 VRB13G18    N/A   WCI  -9
* WHITEHALL    N/A       19   0  43 NE9G15     N/A   WCI   8
* WISE RIVER   N/A       15   1  54 SE10G17    N/A   WCI   3
$$

MTZ009>010-012-014-046-048-049-054-010500-
EAST SLOPES AND CENTRAL MONTANA
CITY           SKY/WX    TMP DP  RH WIND       PRES   REMARKS
CUT BANK       CLEAR     10   7  88 W9        30.16R WCI  -3
GREAT FALLS    CLEAR     12   7  80 SW9       30.18R
MALMSTROM AFB  CLEAR     14   9  80 SW12      30.20R
* CONRAD       CLEAR     18   9  68 CALM       N/A
* DEARBORN     N/A       13   4  67 S3         N/A
* EAST GLACIER N/A       11   3  70 NW4        N/A
* MONARCH      N/A        5  -2  72 S9G14      N/A   WCI  -9
* PENDROY      N/A       13   3  64 NW4        N/A
* ROGERS PASS  N/A        6   0  76 NW4        N/A
* SWEET GRASS  N/A       19  12  74 N18G24     N/A   WCI   4
* WHITE SULPH  N/A        6  -2  69 SE1        N/A
$$

MTZ011-013-016-021-035-040-045-047-050-051-010500-
NORTH CENTRAL MONTANA
CITY           SKY/WX    TMP DP  RH WIND       PRES   REMARKS
HAVRE          CLOUDY    23  14  68 SW14      30.17R WCI  10
LEWISTOWN      CLOUDY    10   3  73 SW10      30.13S WCI  -4
* N BAR RANCH  CLEAR     10  -2  58 NW12      30.10S WCI  -5
* CHINOOK      CLEAR     23  16  74 W12       30.17R WCI  11
* FORT BENTON  CLEAR     18  10  71 S8        30.22R WCI   8
* MALTA APT    PTCLDY    21  10  62 W14        N/A   WCI   8
* CHESTER      N/A       20  11  68 NW10G15    N/A   WCI   9
* DENTON       N/A       12   4  70 SW6        N/A   WCI   2
* GEYSER       N/A       16   4  59 SW18       N/A
* JUDITH GAP   N/A        3   0  87 N8         N/A   WCI -10
* LOMA         N/A       19  10  68 SW6        N/A   WCI  11
$$

MTZ017>020-022>027-061-062-010500-
NORTHEAST MONTANA
CITY           SKY/WX    TMP DP  RH WIND       PRES   REMARKS
GLASGOW        CLOUDY    19  10  68 W8        30.14S WCI   9
GLENDIVE       CLEAR     10   7  88 W7        30.15S WCI  -1
JORDAN         MOCLDY    16  10  77 W8        30.16R WCI   5
SIDNEY         PTCLDY    10   1  67 CALM      30.18S
WOLF POINT     CLOUDY    19  10  68 W9        30.15S WCI   8
* BEAVER HILL  N/A       10   3  73 SW9        N/A   WCI  -3
* CIRCLE       N/A       17  10  74 W2G7       N/A
* LINDSAY DVD  N/A       13   3  64 W9         N/A   WCI   1
* NAVAJO       N/A       14   6  70 W12        N/A
* POPLAR APT   PTCLDY    16   7  67 SW3       30.17R
* SACO         N/A       22  11  62 NW11       N/A   WCI  11
* SCOBEY APT   PTCLDY    12  -2  53 W5         N/A   WCI   4
$$

MTZ028>042-056>058-010500-
SOUTHCENTRAL AND SOUTHEAST MONTANA
CITY           SKY/WX    TMP DP  RH WIND       PRES   REMARKS
BAKER          CLEAR      9   1  70 W8        30.14R WCI  -3
BILLINGS       FAIR      18   7  62 N8        30.14R WCI   8
LIVINGSTON     PTCLDY    16   3  56 W6        30.11R WCI   7
MILES CITY     CLEAR     10   7  88 W7        30.18R WCI  -1
* BIG TIMBER A PTCLDY    12   7  80 CALM      30.12R
* FORSYTH APT  CLEAR     18  10  71 W5        30.20R WCI  11
* LAUREL APT   CLEAR     18   1  47 NW8        N/A   WCI   8
* ROUNDUP APT  CLEAR     16   1  51 N/A        N/A
* ALZADA       N/A       15   9  77 W4         N/A
* HYSHAM       N/A       14   6  70 VRB1       N/A
* LAME DEER    N/A        9   5  84 SW4        N/A
* REED POINT   N/A       17   8  68 SE4        N/A
* ROSCOE HILL  N/A       11   0  61 S6         N/A   WCI   1
$$

REGIONAL REPORTS...DAKOTAS
CITY           SKY/WX    TMP DP  RH WIND       PRES   REMARKS
WILLISTON      PTCLDY     1  -2  87 SW3       30.15S
DICKINSON      CLEAR      5   0  80 W8        30.11S WCI  -8
BEACH          CLEAR      7   3  83 W8        30.14S WCI  -6
CROSBY         PTCLDY     7   0  73 SW10      30.11F WCI  -7
TIOGA          CLEAR      0  -2  91 SW8       30.13F WCI -14
WATFORD CITY   CLEAR      1  -2  87 SW7       30.13R WCI -12
BISMARCK       PTCLDY    10   1  67 W3        30.21R
GRAND FORKS    MOCLDY     7   0  73 W10       30.16S WCI  -7
FARGO          PTCLDY    12   3  67 W15       30.21R WCI  -4
BUFFALO SD     MOCLDY     9   3  76 W9        30.08R WCI  -4
RAPID CITY     MOCLDY    14   9  80 CALM      30.17R
$$

REGIONAL REPORTS...WYOMING/IDAHO/WASHINGTON
CITY           SKY/WX    TMP DP  RH WIND       PRES   REMARKS
GILLETTE       CLOUDY    16   9  74 N6        30.11R WCI   7
SHERIDAN       PTCLDY    10   3  73 CALM      30.14R
CODY           MOCLDY    16   9  74 CALM      30.08R
YELLOWSTONE LA PTCLDY     7   0  73 NE3       29.92R
SALMON         PTCLDY    27  14  58 CALM      30.06R
MULLAN PASS    CLEAR     16  -2  45 SE8       30.03S WCI   5
SAND POINT     CLEAR     27  14  58 CALM      30.19R
SPOKANE        CLEAR     32   7  35 CALM      30.15R
$$

REGIONAL REPORTS...ALBERTA
CITY           SKY/WX    TMP DP  RH WIND       PRES   REMARKS
CALGARY        FAIR      19  10  68 NW5       30.16R WCI  12
LETHBRIDGE     CLOUDY    25  18  75 W15       30.20R WCI  13
MEDICINE HAT   MOCLDY    12  10  92 W6        30.19R WCI   2
EDMONTON       MOCLDY    21  10  62 NW6       30.19R WCI  13
WATERTON GATE  N/A       12   7  80 SW7        N/A   WCI   1
CARDSTON       N/A       14   7  73 SW8        N/A   WCI   3
MILK RIVER     N/A       19  16  88 NW10       N/A   WCI   8
$$

REGIONAL REPORTS...SASKATCHEWAN
CITY           SKY/WX    TMP DP  RH WIND       PRES   REMARKS
SWIFT CURRENT  LGT SNOW  14  12  92 W13       30.08R
REGINA         LGT SNOW  10   7  88 W15       30.06R WCI  -7
VAL MARIE      N/A       19  16  88 W8         N/A   WCI   9
ASSINIBOIA     N/A       16  12  84 W14        N/A   WCI   2
CORONACH       N/A       14  10  84 SW10       N/A   WCI   1

$$




USA.gov is the U.S. government's official web portal to all federal, state and local government web resources and services.